date,time,temp c,spcond (ms/cm),ph,do (mg/l),do (%),turbidity (fnu),chlorophyll (rfu),phycocyanin (rfu),sysbattery
06/08/2016,14:15:00,22.75,1.18,7.73,7.9,91.96,2.61,1.5,.28,13.81
06/08/2016,14:30:00,22.69,1.17,7.65,7.71,89.66,2.52,1.53,.28,13.16
06/08/2016,14:45:00,22.73,1.17,7.68,7.8,90.8,2.46,1.48,.26,13.23
06/08/2016,15:00:00,22.78,1.16,7.72,7.93,92.34,2.6,1.36,.23,13.85
06/08/2016,15:15:00,22.86,1.16,7.8,8.2,95.61,2.43,1.39,.24,13.26
06/08/2016,15:30:00,22.83,1.16,7.79,,,2.4,1.33,.25,13.85
06/08/2016,15:45:00,22.87,1.16,7.83,,,2.62,1.44,.28,13.95
06/08/2016,16:00:00,22.89,1.17,7.85,,,2.49,1.38,.27,13.87
06/08/2016,16:15:00,22.92,1.16,7.83,,,2.57,1.48,.25,13.26
06/08/2016,16:30:00,23.04,1.17,7.86,,,2.56,1.31,.23,13.24
06/08/2016,16:45:00,22.95,1.16,7.84,,,2.5,1.61,.27,13.22
06/08/2016,17:00:00,23.03,1.17,7.92,,,2.35,1.47,.22,13.25
06/08/2016,17:15:00,23.08,1.16,8.57,,,2.09,1.35,.23,13.26
06/08/2016,17:30:00,23.05,1.16,8.67,,,2.2,1.4,.26,13.34
06/08/2016,17:45:00,23.01,1.16,8.57,,,2.08,1.21,.21,13.33
06/08/2016,18:00:00,22.95,1.16,8.66,,,2.08,1.3,.27,13.16
06/08/2016,18:15:00,22.92,1.16,8.49,,,2.04,1.25,.2,13.09
06/08/2016,18:30:00,22.91,1.16,8.49,,,2.11,1.2,.24,13.16
06/08/2016,18:45:00,22.86,1.16,8.5,,,2,1.15,.22,13.06
06/08/2016,19:00:00,22.82,1.17,8.44,,,2.05,1.28,.21,13.05
06/08/2016,19:15:00,22.76,1.17,8.41,,,1.99,1.3,.21,13.03
06/08/2016,19:30:00,22.71,1.18,8.38,,,1.95,1.26,.24,12.98
06/08/2016,19:45:00,22.65,1.18,8.31,,,2.03,1.34,.22,12.89
06/08/2016,20:00:00,22.58,1.18,8.3,,,2,1.39,.23,12.87
06/08/2016,20:15:00,22.54,1.19,8.25,,,1.99,1.59,.27,12.81
06/08/2016,20:30:00,22.48,1.2,8.22,,,2,1.4,.23,12.82
06/08/2016,20:45:00,22.42,1.2,8.19,,,2.07,1.41,.25,12.8
06/08/2016,21:00:00,22.37,1.2,8.18,,,2,1.43,.26,12.79
06/08/2016,21:15:00,22.3,1.2,8.17,,,1.92,1.48,.28,12.82
06/08/2016,21:30:00,22.24,1.2,8.17,8.61,99.3,2.06,1.47,.29,12.77
06/08/2016,21:45:00,22.18,1.2,8.16,,,2.19,1.45,.26,12.91
06/08/2016,22:00:00,22.11,1.2,8.18,,,2.03,1.43,.27,12.78
06/08/2016,22:15:00,22.03,1.2,8.17,,,1.91,1.56,.29,12.76
06/08/2016,22:30:00,21.99,1.2,8.16,,,1.91,1.58,.28,12.74
06/08/2016,22:45:00,21.95,1.2,8.11,,,1.87,1.43,.29,12.74
06/08/2016,23:00:00,21.89,1.21,8.04,8.3,95.05,1.94,1.47,.25,12.77
06/08/2016,23:15:00,21.86,1.21,7.94,,,1.87,1.43,.26,12.74
06/08/2016,23:30:00,21.81,1.22,7.88,,,1.89,1.39,.24,12.76
06/08/2016,23:45:00,21.74,1.22,7.83,,,1.82,1.44,.26,12.76
06/09/2016,00:00:00,21.71,1.23,7.76,,,1.94,1.29,.25,12.71
06/09/2016,00:15:00,21.65,1.24,7.72,,,2.03,1.27,.2,12.74
06/09/2016,00:30:00,21.64,1.25,7.64,,,1.92,1.41,.24,12.73
06/09/2016,00:45:00,21.58,1.26,7.59,,,2.09,1.38,.25,12.73
06/09/2016,01:00:00,21.56,1.27,7.54,,,2.16,1.24,.23,12.73
06/09/2016,01:15:00,21.53,1.27,7.51,7.04,80.09,2.13,1.33,.25,12.7
06/09/2016,01:30:00,21.49,1.27,7.5,,,2.26,1.3,.22,12.78
06/09/2016,01:45:00,21.45,1.27,7.48,,,2.24,1.29,.22,12.73
06/09/2016,02:00:00,21.42,1.27,7.47,,,2.26,2.25,.24,12.82
06/09/2016,02:15:00,21.37,1.27,7.46,,,2.61,1.33,.24,12.68
06/09/2016,02:30:00,21.33,1.26,7.44,,,2.67,1.33,.23,12.71
06/09/2016,02:45:00,21.27,1.26,7.43,,,2.51,1.33,.23,12.71
06/09/2016,03:00:00,21.23,1.25,7.41,,,2.48,1.46,.24,12.72
06/09/2016,03:15:00,21.19,1.25,7.39,,,2.61,1.38,.23,12.82
06/09/2016,03:30:00,21.14,1.24,7.38,6.24,70.4,2.58,1.31,.22,12.7
06/09/2016,03:45:00,21.08,1.25,7.37,6.18,69.7,2.7,1.25,.21,12.69
06/09/2016,04:00:00,21.03,1.23,7.35,6.09,68.63,2.61,1.3,.24,12.76
06/09/2016,04:15:00,21,1.23,7.35,,,2.59,1.33,.25,12.69
06/09/2016,04:30:00,20.96,1.22,7.36,6.05,68.02,2.72,1.47,.24,12.68
06/09/2016,04:45:00,20.89,1.22,7.36,6.02,67.66,2.64,1.32,.24,12.63
06/09/2016,05:00:00,20.86,1.22,7.35,,,2.67,1.33,.27,12.71
06/09/2016,05:15:00,20.82,1.25,7.34,,,2.64,1.36,.23,12.68
06/09/2016,05:30:00,20.76,1.23,7.35,,,2.48,1.27,.24,12.63
06/09/2016,05:45:00,20.73,1.22,7.35,,,2.4,1.36,.24,12.69
06/09/2016,06:00:00,20.68,1.22,7.35,5.95,66.52,2.53,1.29,.24,12.71
06/09/2016,06:15:00,20.65,1.2,7.36,,,2.52,1.24,.23,12.69
06/09/2016,06:30:00,20.6,1.21,7.37,,,2.67,1.2,.25,12.83
06/09/2016,06:45:00,20.56,1.2,7.39,,,2.74,1.15,.22,12.93
06/09/2016,07:00:00,20.54,1.22,7.37,6.09,67.94,2.53,1.17,.22,12.99
06/09/2016,07:15:00,20.52,1.21,7.39,,,2.58,1.13,.2,12.95
06/09/2016,07:30:00,20.49,1.21,7.35,,,2.37,1.03,.21,13.1
06/09/2016,07:45:00,20.45,1.21,7.37,6.15,68.44,2.37,1.04,.21,13.24
06/09/2016,08:00:00,20.43,1.21,7.39,,,2.28,1.02,.2,13.18
06/09/2016,08:15:00,20.4,1.21,7.41,,,2.31,1.08,.2,13.1
06/09/2016,08:30:00,20.36,1.21,7.41,6.51,72.36,2.25,.99,.23,13.27
06/09/2016,08:45:00,20.35,1.2,7.46,6.7,74.45,2.27,1.05,.21,13.35
06/09/2016,09:00:00,20.32,1.21,7.46,,,2.37,1.01,.21,13.32
06/09/2016,09:15:00,20.36,1.2,7.52,7.07,78.62,2.44,1.11,.22,13.44
06/09/2016,09:30:00,20.36,1.21,7.56,7.25,80.64,2.59,1.08,.23,13.35
06/09/2016,09:45:00,20.38,1.2,7.58,7.33,81.48,2.62,1.11,.23,13.33
06/09/2016,10:00:00,20.39,1.2,7.64,7.6,84.54,2.42,1.05,.2,13.36
06/09/2016,10:15:00,20.44,1.2,7.68,,,2.48,1.16,.23,13.29
06/09/2016,10:30:00,20.41,1.21,7.76,8.03,89.38,2.33,1.05,.23,13.32
06/09/2016,10:45:00,20.45,1.21,7.75,7.94,88.43,2.45,1.15,.23,13.36
06/09/2016,11:00:00,20.48,1.21,7.86,8.31,92.53,2.23,1.16,.25,13.42
06/09/2016,11:15:00,20.44,1.21,7.85,8.29,92.33,2.43,1.19,.24,13.36
06/09/2016,11:30:00,20.44,1.21,7.95,8.59,95.66,2.1,1.11,.23,13.45
06/09/2016,11:45:00,20.49,1.2,7.98,,,2.1,1.24,.24,13.66
06/09/2016,12:00:00,20.53,1.2,8.04,8.82,98.41,2.18,1.12,.24,13.58
06/09/2016,12:15:00,20.53,1.2,8.14,9.12,101.72,2.12,1.1,.24,13.5
06/09/2016,12:30:00,20.55,1.2,8.1,9.1,101.55,2.37,1.28,.23,14.03
06/09/2016,12:45:00,20.59,1.2,8.35,,,2.02,1.12,.25,13.64
06/09/2016,13:00:00,20.62,1.19,8.34,9.54,106.54,2.01,1.14,.25,13.56
06/09/2016,13:15:00,20.62,1.19,8.22,9.26,103.5,2.19,1.28,.26,13.65
06/09/2016,13:30:00,20.62,1.18,8.38,9.62,107.45,2.1,1.27,.31,13.59
06/09/2016,13:45:00,20.64,1.18,8.46,,,2.02,1.19,.27,13.62
06/09/2016,14:00:00,20.65,1.18,8.4,,,2.08,1.3,.28,13.61
06/09/2016,14:15:00,20.68,1.16,8.55,10.13,113.24,1.99,1.22,.25,13.64
06/09/2016,14:30:00,20.67,1.16,8.56,,,2.04,1.24,.25,13.58
06/09/2016,14:45:00,20.65,1.17,8.43,9.87,110.35,2.11,1.35,.27,13.83
06/09/2016,15:00:00,20.62,1.17,8.49,9.97,111.35,2.03,1.35,.27,13.45
06/09/2016,15:15:00,20.61,1.16,8.54,10.1,112.84,1.99,1.19,.25,14.01
06/09/2016,15:30:00,20.6,1.16,8.6,10.29,114.9,2.02,1.29,.27,13.44
06/09/2016,15:45:00,20.59,1.17,8.49,10.04,112.05,2.05,1.31,.22,13.32
06/09/2016,16:00:00,20.57,1.17,8.45,,,2.01,1.27,.23,13.48
06/09/2016,16:15:00,20.63,1.17,8.46,9.96,111.24,2.02,1.26,.25,13.98
06/09/2016,16:30:00,20.61,1.17,8.51,10.09,112.66,2.03,1.26,.24,13.5
06/09/2016,16:45:00,20.56,1.17,8.48,10.02,111.76,2.03,1.29,.26,13.45
06/09/2016,17:00:00,20.53,1.16,8.5,,,2.01,1.25,.27,13.49
06/09/2016,17:15:00,20.53,1.17,8.44,,,2.04,1.19,.21,13.67
06/09/2016,17:30:00,20.49,1.16,8.45,,,2.05,1.22,.22,13.39
06/09/2016,17:45:00,20.46,1.16,8.42,9.91,110.4,1.95,1.26,.25,13.22
06/09/2016,18:00:00,20.46,1.16,8.4,9.83,109.45,1.96,1.31,.25,13.35
06/09/2016,18:15:00,20.43,1.16,8.39,,,2.01,1.15,.24,13.27
06/09/2016,18:30:00,20.38,1.16,8.38,,,2.06,1.25,.22,13.36
06/09/2016,18:45:00,20.34,1.16,8.33,9.7,107.78,2.01,1.2,.22,13.1
06/09/2016,19:00:00,20.31,1.16,8.31,,,2.12,1.32,.22,12.98
06/09/2016,19:15:00,20.29,1.16,8.31,,,2.09,1.32,.25,12.99
06/09/2016,19:30:00,20.25,1.16,8.29,9.55,105.85,2.01,1.39,.25,13.08
06/09/2016,19:45:00,20.21,1.16,8.26,9.48,105.05,2.05,1.23,.24,12.89
06/09/2016,20:00:00,20.17,1.16,8.24,,,2.07,1.46,.24,12.83
06/09/2016,20:15:00,20.13,1.16,8.2,,,2,1.39,.23,12.85
06/09/2016,20:30:00,20.13,1.16,8.21,,,2.01,1.58,.25,12.88
06/09/2016,20:45:00,20.09,1.16,8.18,9.23,101.97,1.87,1.44,.25,12.85
06/09/2016,21:00:00,20.04,1.16,8.14,9.15,101.07,1.79,1.3,.24,12.85
06/09/2016,21:15:00,19.99,1.16,8.12,,,1.85,1.22,.23,12.87
06/09/2016,21:30:00,19.95,1.16,8.1,9.04,99.63,1.78,1.27,.23,12.82
06/09/2016,21:45:00,19.95,1.16,8.09,,,1.8,1.27,.22,12.88
06/09/2016,22:00:00,19.93,1.16,8.09,,,2.32,1.19,.21,12.83
06/09/2016,22:15:00,19.89,1.16,8.07,,,1.75,1.33,.23,12.8
06/09/2016,22:30:00,19.88,1.16,8.06,,,1.78,1.25,.24,12.82
06/09/2016,22:45:00,19.84,1.16,8.04,,,1.77,1.28,.23,12.8
06/09/2016,23:00:00,19.81,1.16,8.02,,,1.84,1.3,.26,12.8
06/09/2016,23:15:00,19.78,1.16,7.99,8.68,95.38,1.77,1.23,.22,12.82
06/09/2016,23:30:00,19.74,1.16,7.96,8.61,94.5,1.73,1.15,.22,12.8
06/09/2016,23:45:00,19.7,1.15,7.91,,,1.76,1.11,.21,12.78
06/10/2016,00:00:00,19.66,1.15,7.88,,,1.75,1.12,.23,12.79
06/10/2016,00:15:00,19.63,1.15,7.87,,,1.66,1.07,.22,12.82
06/10/2016,00:30:00,19.57,1.15,7.82,,,1.64,1.05,.22,12.78
06/10/2016,00:45:00,19.56,1.15,7.8,,,1.92,1.01,.21,12.8
06/10/2016,01:00:00,19.5,1.15,7.76,,,1.79,1.03,.19,12.83
06/10/2016,01:15:00,19.47,1.15,7.75,,,1.87,1.04,.2,12.82
06/10/2016,01:30:00,19.45,1.15,7.75,,,1.87,1.08,.21,12.79
06/10/2016,01:45:00,19.43,1.15,7.74,,,2.05,1.15,.22,12.8
06/10/2016,02:00:00,19.41,1.15,7.72,7.87,85.85,1.85,1.15,.2,12.79
06/10/2016,02:15:00,19.35,1.15,7.71,7.83,85.32,1.75,1.2,.21,12.88
06/10/2016,02:30:00,19.3,1.16,7.69,7.8,84.83,1.85,1.14,.22,12.82
06/10/2016,02:45:00,19.27,1.15,7.69,,,1.8,1.18,.23,12.78
06/10/2016,03:00:00,19.23,1.15,7.69,,,1.76,1.14,.22,12.8
06/10/2016,03:15:00,19.25,1.16,7.68,,,1.97,1.2,.24,12.83
06/10/2016,03:30:00,19.19,1.15,7.66,,,1.85,1.19,.23,12.78
06/10/2016,03:45:00,19.18,1.16,7.66,,,1.97,1.21,.25,12.79
06/10/2016,04:00:00,19.14,1.16,7.65,,,1.87,1.23,.23,12.74
06/10/2016,04:15:00,19.11,1.16,7.65,,,1.81,1.18,.21,12.76
06/10/2016,04:30:00,19.09,1.16,7.65,,,1.76,1.21,.22,12.73
06/10/2016,04:45:00,19.03,1.16,7.64,,,1.77,1.19,.25,12.77
06/10/2016,05:00:00,19.01,1.16,7.64,,,1.94,1.21,.24,12.77
06/10/2016,05:15:00,18.97,1.16,7.63,7.49,80.94,1.98,1.33,.26,12.72
06/10/2016,05:30:00,18.93,1.16,7.62,,,1.94,1.34,.27,12.78
06/10/2016,05:45:00,18.85,1.16,7.59,,,1.91,1.14,.22,12.76
06/10/2016,06:00:00,18.82,1.16,7.6,,,1.76,1.12,.21,12.83
06/10/2016,06:15:00,18.8,1.16,7.6,,,1.77,1.05,.22,13.1
06/10/2016,06:30:00,18.78,1.16,7.6,,,1.75,1.05,.22,13.06
06/10/2016,06:45:00,18.76,1.16,7.61,,,1.83,.99,.21,13.07
06/10/2016,07:00:00,18.73,1.16,7.61,,,1.71,.96,.2,13.5
06/10/2016,07:15:00,18.75,1.16,7.63,,,1.73,.97,.24,13.74
06/10/2016,07:30:00,18.75,1.16,7.64,,,1.82,.93,.22,13.84
06/10/2016,07:45:00,18.76,1.15,7.67,,,1.85,.97,.22,14.03
06/10/2016,08:00:00,18.79,1.15,7.68,,,1.86,1.05,.23,13.66
06/10/2016,08:15:00,18.79,1.15,7.69,,,1.83,.93,.21,14.08
06/10/2016,08:30:00,18.76,1.16,7.7,,,1.91,1.05,.24,13.83
06/10/2016,08:45:00,18.77,1.16,7.73,,,1.92,1,.24,14.11
06/10/2016,09:00:00,18.81,1.16,7.75,,,1.84,1.05,.23,14.06
06/10/2016,09:15:00,18.82,1.16,7.76,,,1.97,1.02,.24,13.66
06/10/2016,09:30:00,18.83,1.16,7.79,,,1.88,1.05,.24,14.09
06/10/2016,09:45:00,18.84,1.16,7.78,,,1.83,1.04,.21,14.04
06/10/2016,10:00:00,18.86,1.16,7.79,,,1.92,1.02,.21,14.12
06/10/2016,10:15:00,18.92,1.16,7.82,,,1.88,.99,.24,13.6
06/10/2016,10:30:00,18.92,1.16,7.82,,,1.87,.98,.23,13.66
06/10/2016,10:45:00,18.98,1.16,7.83,,,1.95,.92,.2,13.4
06/10/2016,11:00:00,19,1.16,7.87,,,2.02,.98,.19,14.01
06/10/2016,11:15:00,19.04,1.16,7.88,,,2.05,.95,.22,13.45
06/10/2016,11:30:00,19.12,1.16,7.91,,,1.79,.9,.18,13.85
06/10/2016,11:45:00,19.16,1.16,7.96,,,1.99,.99,.17,13.62
06/10/2016,12:00:00,19.22,1.16,7.96,,,1.97,.97,.22,13.54
06/10/2016,12:15:00,19.2,1.16,7.95,,,1.82,.98,.21,13.59
06/10/2016,12:30:00,19.3,1.16,8,,,1.8,.94,.2,14.06
06/10/2016,12:45:00,19.33,1.17,8.01,,,1.87,.94,.17,14
06/10/2016,13:00:00,19.48,1.17,8.03,,,1.79,.97,.19,14.02
06/10/2016,13:15:00,19.54,1.17,8.06,,,1.72,1.09,.19,14.03
06/10/2016,13:30:00,19.57,1.16,8.05,,,1.85,.88,.22,14.01
06/10/2016,13:45:00,19.73,1.16,8.06,,,1.72,.91,.2,13.98
06/10/2016,14:00:00,19.76,1.16,8.07,,,1.62,.89,.19,13.56
06/10/2016,14:15:00,19.85,1.17,8.09,,,1.73,.93,.17,13.87
06/10/2016,14:30:00,19.83,1.17,8.08,,,1.68,1.01,.21,13.62
06/10/2016,14:45:00,19.9,1.17,8.08,,,1.69,.98,.23,13.95
06/10/2016,15:00:00,19.99,1.17,8.1,,,1.9,1.16,.2,13.83
06/10/2016,15:15:00,20.04,1.18,8.09,,,1.75,1.09,.19,13.85
06/10/2016,15:30:00,20.09,1.19,8.08,,,1.77,1.04,.24,13.85
06/10/2016,15:45:00,20.22,1.2,8.1,,,1.8,1.12,.21,13.85
06/10/2016,16:00:00,20.22,1.22,8.07,,,1.92,1.17,.18,13.57
06/10/2016,16:15:00,20.32,1.23,8.1,,,2,1.1,.2,13.61
06/10/2016,16:30:00,20.45,1.23,8.15,,,1.96,1.18,.2,13.89
06/10/2016,16:45:00,20.46,1.24,8.12,,,1.96,1.08,.21,13.95
06/10/2016,17:00:00,20.51,1.25,8.11,,,2.06,1.1,.21,13.49
06/10/2016,17:15:00,20.48,1.26,8.11,,,1.96,1.17,.19,13.54
06/10/2016,17:30:00,20.56,1.27,8.16,,,2.08,1.32,.21,13.59
06/10/2016,17:45:00,20.6,1.26,8.21,,,2.01,1.19,.21,13.53
06/10/2016,18:00:00,20.67,1.26,8.2,,,1.88,1.16,.18,13.91
06/10/2016,18:15:00,20.73,1.26,8.24,,,1.95,1.05,.19,13.85
06/10/2016,18:30:00,20.75,1.26,8.22,,,1.89,1.1,.17,13.94
06/10/2016,18:45:00,20.76,1.27,8.24,,,1.87,1.14,.17,13.85
06/10/2016,19:00:00,20.72,1.28,8.24,,,1.82,1.23,.18,13.84
06/10/2016,19:15:00,20.85,1.26,8.42,,,1.76,1.17,.17,13.78
06/10/2016,19:30:00,20.87,1.27,8.4,,,1.72,1.29,.18,13.87
06/10/2016,19:45:00,20.88,1.27,8.44,,,1.68,1.45,.2,13.79
06/10/2016,20:00:00,20.93,1.25,8.59,,,1.56,1.35,.21,13.29
06/10/2016,20:15:00,20.95,1.25,8.62,,,1.55,1.32,.23,12.98
06/10/2016,20:30:00,20.93,1.23,8.8,,,1.6,1.29,.2,12.91
06/10/2016,20:45:00,20.96,1.22,8.9,,,1.42,1.32,.19,12.88
06/10/2016,21:00:00,20.93,1.21,8.9,,,1.67,1.37,.21,12.97
06/10/2016,21:15:00,20.91,1.21,8.95,,,1.36,1.32,.24,12.87
06/10/2016,21:30:00,20.86,1.21,8.86,,,1.3,1.3,.23,12.91
06/10/2016,21:45:00,20.81,1.22,8.9,,,1.29,1.21,.23,12.88
06/10/2016,22:00:00,20.79,1.21,8.83,,,1.29,1.3,.24,12.89
06/10/2016,22:15:00,20.73,1.22,8.85,,,1.25,1.06,.19,12.85
06/10/2016,22:30:00,20.69,1.2,8.87,,,1.22,1.01,.2,12.83
06/10/2016,22:45:00,20.66,1.22,8.81,,,1.26,1.11,.21,12.84
06/10/2016,23:00:00,20.61,1.22,8.78,,,1.3,1.12,.24,12.86
06/10/2016,23:15:00,20.55,1.21,8.77,,,1.27,.93,.16,12.84
06/10/2016,23:30:00,20.52,1.24,8.34,,,1.37,.94,.17,12.87
06/10/2016,23:45:00,20.48,1.23,8.59,,,1.31,.98,.17,12.82
06/11/2016,00:00:00,20.45,1.23,8.48,,,1.29,1.01,.17,12.87
06/11/2016,00:15:00,20.41,1.23,8.51,,,1.31,1.02,.17,12.83
06/11/2016,00:30:00,20.35,1.22,8.63,,,1.2,.95,.19,12.82
06/11/2016,00:45:00,20.32,1.23,8.55,,,1.34,.93,.18,12.8
06/11/2016,01:00:00,20.27,1.22,8.6,,,1.21,.98,.16,12.82
06/11/2016,01:15:00,20.23,1.22,8.55,,,1.18,.96,.18,12.81
06/11/2016,01:30:00,20.16,1.23,8.48,,,1.26,.97,.2,12.82
06/11/2016,01:45:00,20.15,1.23,8.53,,,1.15,.91,.2,12.82
06/11/2016,02:00:00,20.12,1.23,8.51,,,1.25,.92,.17,12.8
06/11/2016,02:15:00,20.08,1.23,8.46,,,1.21,.9,.21,12.79
06/11/2016,02:30:00,20.06,1.23,8.47,,,1.2,.97,.19,12.79
06/11/2016,02:45:00,20.02,1.23,8.46,,,1.21,.88,.17,12.82
06/11/2016,03:00:00,19.99,1.24,8.39,8.73,96.32,1.25,.97,.18,12.78
06/11/2016,03:15:00,19.96,1.24,8.36,,,1.17,.92,.18,12.78
06/11/2016,03:30:00,19.93,1.23,8.38,,,1.24,.95,.18,12.8
06/11/2016,03:45:00,19.9,1.24,8.32,,,1.31,.93,.17,12.8
06/11/2016,04:00:00,19.86,1.24,8.3,8.52,93.74,1.28,.96,.18,12.8
06/11/2016,04:15:00,19.83,1.24,8.3,,,1.44,.98,.19,12.87
06/11/2016,04:30:00,19.8,1.24,8.27,,,1.22,.94,.21,12.81
06/11/2016,04:45:00,19.78,1.26,8.19,,,1.21,.94,.21,12.82
06/11/2016,05:00:00,19.75,1.25,8.2,,,1.26,.95,.2,12.87
06/11/2016,05:15:00,19.72,1.25,8.17,,,1.23,.94,.17,12.8
06/11/2016,05:30:00,19.72,1.27,8.1,,,1.23,.89,.17,13.06
06/11/2016,05:45:00,19.68,1.27,8.12,,,1.24,.91,.16,13.49
06/11/2016,06:00:00,19.67,1.27,8.09,,,1.28,.92,.2,13.76
06/11/2016,06:15:00,19.65,1.28,8.08,,,1.32,.88,.19,13.93
06/11/2016,06:30:00,19.62,1.27,8.13,,,1.23,.85,.18,14.04
06/11/2016,06:45:00,19.62,1.28,8.13,,,1.28,.83,.17,14.21
06/11/2016,07:00:00,19.62,1.27,8.16,,,1.23,.76,.15,13.84
06/11/2016,07:15:00,19.62,1.27,8.18,,,1.15,.83,.18,13.95
06/11/2016,07:30:00,19.63,1.28,8.18,,,1.29,.83,.18,13.67
06/11/2016,07:45:00,19.63,1.28,8.23,,,1.2,.85,.19,14.2
06/11/2016,08:00:00,19.65,1.28,8.22,,,1.27,.88,.22,14.17
06/11/2016,08:15:00,19.68,1.28,8.25,,,1.24,.83,.21,14.1
06/11/2016,08:30:00,19.7,1.29,8.16,,,1.65,.89,.19,14
06/11/2016,08:45:00,19.71,1.28,8.13,,,1.29,.83,.19,14.09
06/11/2016,09:00:00,19.7,1.27,8.1,,,1.56,.87,.18,14
06/11/2016,09:15:00,19.68,1.25,8.12,,,1.26,.84,.17,14.02
06/11/2016,09:30:00,19.68,1.24,8.09,,,1.24,.95,.16,13.93
06/11/2016,09:45:00,19.67,1.24,8.09,,,1.27,.86,.17,13.78
06/11/2016,10:00:00,19.66,1.22,8.12,,,1.34,1,.17,13.95
06/11/2016,10:15:00,19.66,1.22,8.1,,,1.32,.95,.18,13.95
06/11/2016,10:30:00,19.67,1.21,8.08,,,1.42,.97,.21,14.01
06/11/2016,10:45:00,19.66,1.22,8.03,,,1.51,1.05,.21,13.96
06/11/2016,11:00:00,19.69,1.22,8.05,,,1.45,1.03,.2,13.95
06/11/2016,11:15:00,19.69,1.22,8.07,,,1.73,.98,.19,13.98
06/11/2016,11:30:00,19.7,1.21,8.03,,,1.67,1,.18,13.94
06/11/2016,11:45:00,19.74,1.21,8.08,,,1.61,.98,.2,13.94
06/11/2016,12:00:00,19.76,1.22,7.99,,,1.89,1.14,.2,13.94
06/11/2016,12:15:00,19.73,1.21,8,,,1.81,1.09,.19,13.94
06/11/2016,12:30:00,19.73,1.2,8,,,1.72,2.12,.22,13.92
06/11/2016,12:45:00,19.73,1.2,7.99,,,1.73,1.04,.2,13.77
06/11/2016,13:00:00,19.77,1.2,7.97,,,2.13,1.2,.22,13.31
06/11/2016,13:15:00,19.73,1.19,7.94,,,1.99,1.4,.22,13.26
06/11/2016,13:30:00,19.72,1.19,7.95,,,1.99,1.29,.2,13.58
06/11/2016,13:45:00,19.74,1.18,7.98,,,1.93,1.2,.22,13.44
06/11/2016,14:00:00,19.73,1.19,7.87,,,2.12,1.19,.2,13.36
06/11/2016,14:15:00,19.79,1.19,7.97,,,2.26,1.24,.2,13.34
06/11/2016,14:30:00,19.76,1.21,7.86,,,2.1,1.26,.21,13.12
06/11/2016,14:45:00,19.76,1.21,7.82,,,2.03,1.1,.19,13.93
06/11/2016,15:00:00,19.81,1.21,7.93,,,2.07,1.21,.21,13.31
06/11/2016,15:15:00,19.83,1.23,7.88,,,2.15,1.3,.22,13.09
06/11/2016,15:30:00,19.83,1.23,8.03,,,2.03,1.26,.19,12.96
06/11/2016,15:45:00,19.85,1.23,8.07,,,2,1.25,.22,12.98
06/11/2016,16:00:00,19.85,1.24,8.2,,,2.13,1.17,.2,12.96
06/11/2016,16:15:00,19.9,1.25,8.36,,,1.88,1.17,.24,12.95
06/11/2016,16:30:00,19.86,1.25,8.21,,,2.08,1.15,.21,13.03
06/11/2016,16:45:00,19.87,1.23,8.49,,,1.63,1.07,.2,12.96
06/11/2016,17:00:00,19.87,1.25,8.39,,,1.75,1.22,.22,12.93
06/11/2016,17:15:00,19.86,1.26,8.17,,,1.94,1.21,.21,12.92
06/11/2016,17:30:00,19.84,1.24,8.36,,,1.85,1.16,.21,12.91
06/11/2016,17:45:00,19.85,1.25,8.36,,,1.76,1.02,.21,13.02
06/11/2016,18:00:00,19.84,1.23,8.49,,,1.84,1.07,.19,12.96
06/11/2016,18:15:00,19.84,1.24,8.77,,,1.62,.99,.2,12.85
06/11/2016,18:30:00,19.83,1.24,8.48,,,1.75,1.12,.22,12.89
06/11/2016,18:45:00,19.83,1.26,8.56,,,1.89,1.13,.23,12.92
06/11/2016,19:00:00,19.83,1.25,8.59,,,1.62,1.14,.21,12.89
06/11/2016,19:15:00,19.8,1.26,8.6,,,1.51,1.08,.22,12.88
06/11/2016,19:30:00,19.76,1.23,8.73,,,1.43,.96,.21,12.87
06/11/2016,19:45:00,19.73,1.22,8.73,,,1.43,.93,.17,12.85
06/11/2016,20:00:00,19.75,1.24,8.7,,,1.51,1.03,.2,12.9
06/11/2016,20:15:00,19.8,1.28,8.49,,,1.54,1.08,.2,12.81
06/11/2016,20:30:00,19.67,1.24,8.69,,,1.43,.99,.19,12.8
06/11/2016,20:45:00,19.69,1.25,8.65,,,1.45,1.06,.19,12.83
06/11/2016,21:00:00,19.69,1.27,8.57,,,1.6,1.14,.23,12.83
06/11/2016,21:15:00,19.64,1.25,8.54,,,1.58,1.09,.23,12.9
06/11/2016,21:30:00,19.62,1.24,8.6,,,1.45,1.02,.2,12.84
06/11/2016,21:45:00,19.59,1.24,8.56,,,1.5,1.08,.21,12.79
06/11/2016,22:00:00,19.58,1.25,8.54,,,1.54,1.07,.19,12.82
06/11/2016,22:15:00,19.55,1.25,8.51,,,1.51,1.04,.22,12.79
06/11/2016,22:30:00,19.54,1.24,8.51,,,1.54,.98,.22,12.82
06/11/2016,22:45:00,19.5,1.23,8.49,,,1.52,.96,.2,12.8
06/11/2016,23:00:00,19.48,1.23,8.49,,,1.48,.98,.19,12.79
06/11/2016,23:15:00,19.46,1.23,8.47,,,1.52,.97,.21,12.8
06/11/2016,23:30:00,19.5,1.25,8.41,,,1.58,1,.21,12.8
06/11/2016,23:45:00,19.5,1.25,8.31,,,1.63,1.11,.2,12.79
06/12/2016,00:00:00,19.44,1.24,8.29,,,1.66,.98,.2,12.76
06/12/2016,00:15:00,19.47,1.26,8.15,,,1.93,1.01,.22,12.74
06/12/2016,00:30:00,19.42,1.24,8.06,,,1.79,1.07,.21,12.73
06/12/2016,00:45:00,19.4,1.24,7.99,,,1.88,1.1,.2,12.76
06/12/2016,01:00:00,19.44,1.27,7.92,,,1.86,1.02,.19,12.76
06/12/2016,01:15:00,19.41,1.26,7.92,,,1.87,1,.2,12.78
06/12/2016,01:30:00,19.37,1.26,7.91,,,1.9,1.08,.23,12.77
06/12/2016,01:45:00,19.35,1.25,7.92,,,2.36,1.03,.21,12.76
06/12/2016,02:00:00,19.36,1.26,7.89,,,1.97,.99,.22,12.74
06/12/2016,02:15:00,19.34,1.26,7.88,,,1.82,.98,.21,12.77
06/12/2016,02:30:00,19.34,1.27,7.86,,,1.95,1,.2,12.74
06/12/2016,02:45:00,19.32,1.28,7.85,,,2.01,1.06,.21,12.73
06/12/2016,03:00:00,19.3,1.27,7.84,,,1.88,1.03,.22,12.77
06/12/2016,03:15:00,19.3,1.28,7.82,,,1.97,1.02,.19,12.78
06/12/2016,03:30:00,19.29,1.28,7.81,,,1.89,1.08,.23,12.72
06/12/2016,03:45:00,19.28,1.28,7.8,,,1.85,.96,.19,12.77
06/12/2016,04:00:00,19.25,1.27,7.79,,,2.02,.89,.19,12.74
06/12/2016,04:15:00,19.25,1.28,7.78,,,1.82,.94,.21,12.72
06/12/2016,04:30:00,19.25,1.27,7.77,,,1.84,1.01,.22,12.72
06/12/2016,04:45:00,19.27,1.29,7.76,,,1.98,1.02,.21,12.71
06/12/2016,05:00:00,19.27,1.29,7.75,,,1.88,1.08,.2,12.74
06/12/2016,05:15:00,19.27,1.31,7.74,,,1.96,.97,.2,12.75
06/12/2016,05:30:00,19.28,1.31,7.72,,,2.16,1.1,.22,12.85
06/12/2016,05:45:00,19.26,1.32,7.71,,,2.04,.95,.21,12.77
06/12/2016,06:00:00,19.27,1.32,7.71,,,2.03,.96,.21,12.77
06/12/2016,06:15:00,19.26,1.32,7.74,,,1.94,.93,.2,12.8
06/12/2016,06:30:00,19.24,1.32,7.77,,,1.86,.88,.19,12.8
06/12/2016,06:45:00,19.24,1.32,7.79,,,1.87,.94,.21,12.89
06/12/2016,07:00:00,19.25,1.32,7.78,,,1.86,.88,.2,12.99
06/12/2016,07:15:00,19.27,1.33,7.79,,,2.17,.9,.22,13.06
06/12/2016,07:30:00,19.29,1.35,7.82,,,2.05,.94,.24,13.15
06/12/2016,07:45:00,19.32,1.36,7.82,,,2.14,1.01,.21,13.29
06/12/2016,08:00:00,19.34,1.36,7.84,,,2.19,.96,.19,13.43
06/12/2016,08:15:00,19.37,1.36,7.91,,,1.97,.95,.23,13.47
06/12/2016,08:30:00,19.39,1.38,7.95,,,2.01,.92,.21,13.34
06/12/2016,08:45:00,19.44,1.41,7.94,,,2,.95,.21,13.42
06/12/2016,09:00:00,19.5,1.43,7.86,,,2.76,1.03,.23,13.32
06/12/2016,09:15:00,19.54,1.45,7.82,,,3,1.12,.23,13.36
06/12/2016,09:30:00,19.58,1.44,7.83,,,2.99,1.14,.24,13.44
06/12/2016,09:45:00,19.57,1.47,7.74,,,3.67,1.26,.27,13.32
06/12/2016,10:00:00,19.61,1.48,7.73,,,3.91,1.17,.25,13.51
06/12/2016,10:15:00,19.66,1.5,7.61,,,4.17,1.31,.23,13.66
06/12/2016,10:30:00,19.76,1.5,7.69,,,3.61,1.27,.25,13.78
06/12/2016,10:45:00,19.92,1.53,7.76,,,3.13,1.25,.23,13.59
06/12/2016,11:00:00,20.01,1.54,7.83,,,2.74,1.19,.26,13.83
06/12/2016,11:15:00,20.08,1.59,7.84,,,2.75,1.2,.23,13.7
06/12/2016,11:30:00,20.18,1.58,7.85,,,2.7,1.16,.22,13.78
06/12/2016,11:45:00,20.26,1.6,7.85,,,2.73,1.18,.21,13.53
06/12/2016,12:00:00,20.31,1.63,7.86,,,2.73,1.34,.24,13.36
06/12/2016,12:15:00,20.35,1.63,7.84,,,2.79,1.35,.24,13.24
06/12/2016,12:30:00,20.39,1.62,7.85,,,2.73,1.26,.25,13.51
06/12/2016,12:45:00,20.42,1.64,7.83,,,2.81,1.32,.24,13.35
06/12/2016,13:00:00,20.45,1.65,7.84,,,2.85,1.23,.23,13.74
06/12/2016,13:15:00,20.53,1.59,7.94,,,2.65,1.16,.22,13.6
06/12/2016,13:30:00,20.56,1.61,7.99,,,2.7,1.24,.22,13.84
06/12/2016,13:45:00,20.61,1.58,8.11,,,2.64,1.13,.23,13.85
06/12/2016,14:00:00,20.62,1.54,8.1,,,2.29,1.06,.21,13.84
06/12/2016,14:15:00,20.68,1.54,8.1,,,2.24,.97,.18,13.85
06/12/2016,14:30:00,20.72,1.53,8.22,,,2.08,1.05,.21,13.6
06/12/2016,14:45:00,20.85,1.48,8.56,,,1.98,1.08,.21,13.91
06/12/2016,15:00:00,20.79,1.51,8.37,,,2.07,1.02,.2,13.93
06/12/2016,15:15:00,20.83,1.48,8.52,,,2.04,.98,.2,13.89
06/12/2016,15:30:00,20.86,1.49,8.6,,,2,1.02,.21,13.87
06/12/2016,15:45:00,20.9,1.5,8.61,,,2.13,.98,.21,13.85
06/12/2016,16:00:00,20.96,1.49,8.82,,,1.94,1.06,.24,13.9
06/12/2016,16:15:00,20.94,1.49,8.81,,,1.97,1.1,.22,14.01
06/12/2016,16:30:00,20.87,1.51,8.8,,,1.82,1.07,.21,13.5
06/12/2016,16:45:00,20.83,1.52,8.65,,,2.05,1.09,.21,13.24
06/12/2016,17:00:00,20.75,1.53,8.69,,,2.04,1.13,.22,13.51
06/12/2016,17:15:00,20.7,1.54,8.66,,,1.98,1.09,.24,13.06
06/12/2016,17:30:00,20.65,1.56,8.68,,,2.04,1.06,.23,13.42
06/12/2016,17:45:00,20.64,1.56,8.57,,,2.47,1.15,.23,14.03
06/12/2016,18:00:00,20.59,1.55,8.58,,,2.4,1.09,.24,13.89
06/12/2016,18:15:00,20.53,1.56,8.54,,,2.4,1.16,.26,13.22
06/12/2016,18:30:00,20.51,1.56,8.45,,,2.78,1.17,.22,13.1